Weather History for EGLL - February, 2013

Change the Weather History Date:

Monday, February 18, 2013

  Actual Average Record
Temperature  
Mean Temperature 40 °F -  
Max Temperature 48 °F 48 °F 53 °F (1998)
Min Temperature 33 °F 37 °F 26 °F (2003)
Degree Days  
Heating Degree Days 24    
Moisture  
Dew Point 33 °F    
Average Humidity 82    
Maximum Humidity 100    
Minimum Humidity 45    
Precipitation  
Precipitation 0.01 in - - ()
Sea Level Pressure  
Sea Level Pressure 30.13 in    
Wind  
Wind Speed 6 mph ()    
Max Wind Speed 13 mph    
Max Gust Speed -    
Visibility 4.3 miles    
Events      
Averages and records for this station are not official NWS values.
T = Trace of Precipitation, MM = Missing Value Source: Averaged Metar Reports

Daily Weather History Graph

Daily Weather History Graph

Search for Another Location

Airport or City:

Trip Planner

Search our weather history database for the weather conditions in past years. The results will help you decide how hot, cold, wet, or windy it might be!

Date:

Astronomy

Feb. 18, 2013 Rise Set
Actual Time 7:09 AM GMT 5:22 PM GMT
Civil Twilight 6:35 AM GMT 5:56 PM GMT
Nautical Twilight 5:56 AM GMT 6:35 PM GMT
Astronomical Twilight 5:18 AM GMT 7:14 PM GMT
Moon 10:37 AM GMT (2/18) 1:54 AM GMT (2/18)
Length of Visible Light 11h 21m
Length of Day
10h 13m
First Quarter, 56% of the Moon is Illuminated
Feb 18
First Quarter
Feb 25
Full
Mar 4
Last Quarter
Mar 11
New
Mar 19
First Quarter

Hourly Weather History & Observations

Time (GMT) Temp. Windchill Dew Point Humidity Pressure Visibility Wind Dir Wind Speed Gust Speed Precip Events Conditions
12:20 AM 35.6 °F 29.2 °F 33.8 °F 93% 30.12 in 2.5 mi East 8.1 mph - N/A   Mist
12:50 AM 33.8 °F 27.7 °F 32.0 °F 93% 30.12 in 2.5 mi East 6.9 mph - N/A   Mist
1:20 AM 33.8 °F 28.6 °F 32.0 °F 93% 30.12 in 1.2 mi East 5.8 mph - N/A   Haze
1:50 AM 33.8 °F 28.6 °F 32.0 °F 93% 30.12 in 1.4 mi East 5.8 mph - N/A   Partly Cloudy
2:20 AM 33.8 °F 29.6 °F 32.0 °F 93% 30.12 in 1.4 mi East 4.6 mph - N/A   Haze
2:50 AM 35 °F - 34 °F 93% 30.12 in 2 mi East 3.5 mph - -   Light Haze
2:50 AM 33.8 °F 29.6 °F 32.0 °F 93% 30.12 in 2.2 mi East 4.6 mph - N/A   Scattered Clouds
3:20 AM 33.8 °F 29.6 °F 32.0 °F 93% 30.12 in 2.2 mi East 4.6 mph - N/A   Partly Cloudy
3:50 AM 33.8 °F 29.6 °F 32.0 °F 93% 30.12 in - ENE 4.6 mph - N/A   Mist
4:20 AM 33.8 °F 28.6 °F 32.0 °F 93% 30.12 in - East 5.8 mph - N/A   Mist
4:50 AM 33.8 °F 29.6 °F 32.0 °F 93% 30.12 in - East 4.6 mph - N/A   Mist
5:20 AM 33.8 °F 29.6 °F 32.0 °F 93% 30.12 in - East 4.6 mph - N/A   Mist
5:50 AM 35 °F - 33 °F 89% 30.12 in 3 mi East 5.8 mph - -   Light Haze
5:50 AM 35.6 °F 29.9 °F 33.8 °F 93% 30.12 in - East 6.9 mph - N/A   Mist
6:20 AM 33.8 °F 28.6 °F 33.8 °F 100% 30.12 in - East 5.8 mph - N/A   Mist
6:50 AM 33.8 °F 28.6 °F 32.0 °F 93% 30.12 in 1.8 mi East 5.8 mph - N/A   Mist
7:20 AM 33.8 °F 27.7 °F 32.0 °F 93% 30.12 in 1.8 mi East 6.9 mph - N/A   Mist
7:50 AM 35.6 °F 29.2 °F 33.8 °F 93% 30.12 in 1.8 mi East 8.1 mph - N/A   Mist
8:20 AM 35.6 °F 29.2 °F 33.8 °F 93% 30.12 in 1.8 mi East 8.1 mph - N/A   Mist
8:50 AM 39 °F - 36 °F 86% 30.15 in 2 mi East 9.2 mph - -   Light Haze
8:50 AM 37.4 °F 30.8 °F 35.6 °F 93% 30.12 in - East 9.2 mph - N/A   Haze
9:20 AM 39.2 °F 33.0 °F 35.6 °F 87% 30.15 in - East 9.2 mph - N/A   Haze
9:50 AM 41.0 °F 34.3 °F 37.4 °F 87% 30.15 in - East 11.5 mph - N/A   Haze
10:20 AM 41.0 °F 34.3 °F 37.4 °F 87% 30.15 in 3.7 mi East 11.5 mph - N/A   Partly Cloudy
10:50 AM 42.8 °F 36.2 °F 35.6 °F 76% 30.15 in 4.3 mi East 12.7 mph - N/A   Unknown
11:20 AM 44.6 °F 38.8 °F 35.6 °F 71% 30.15 in 6.2 mi East 11.5 mph - N/A   Partly Cloudy
11:50 AM 45 °F - 36 °F 61% 30.14 in 7 mi ESE 9.2 mph - -  
11:50 AM 44.6 °F 39.2 °F 35.6 °F 71% 30.15 in 6.2 mi East 10.4 mph - N/A   Partly Cloudy
12:20 PM 46.4 °F 42.4 °F 33.8 °F 62% 30.12 in 6.2 mi ESE 8.1 mph - N/A   Partly Cloudy
12:50 PM 46.4 °F 41.5 °F 33.8 °F 62% 30.12 in 6.2 mi ESE 10.4 mph - N/A   Partly Cloudy
1:20 PM 48.2 °F - 32.0 °F 54% 30.12 in 6.2 mi ESE 9.2 mph - N/A   Partly Cloudy
1:50 PM 48.2 °F - 33.8 °F 58% 30.12 in 6.2 mi ESE 9.2 mph - N/A   Partly Cloudy
2:20 PM 48.2 °F - 33.8 °F 58% 30.09 in - ESE 9.2 mph - N/A   Clear
2:50 PM 48 °F - 33 °F 45% 30.12 in 13 mi ESE 9.2 mph - -  
2:50 PM 48.2 °F - 33.8 °F 58% 30.09 in - ESE 8.1 mph - N/A   Clear
3:20 PM 46.4 °F 42.4 °F 33.8 °F 62% 30.09 in - ESE 8.1 mph - N/A   Clear
3:50 PM 46.4 °F 42.4 °F 32.0 °F 57% 30.09 in - ESE 8.1 mph - N/A   Clear
4:20 PM 44.6 °F 40.2 °F 32.0 °F 61% 30.09 in - East 8.1 mph - N/A   Clear
4:50 PM 42.8 °F 38.0 °F 35.6 °F 76% 30.09 in - East 8.1 mph - N/A   Clear
5:20 PM 42.8 °F 38.0 °F 35.6 °F 76% 30.12 in 5.6 mi East 8.1 mph - N/A   Unknown
5:50 PM 41 °F - 35 °F 73% 30.13 in 6 mi East 8.1 mph - -   Light Haze
5:50 PM 41.0 °F 35.8 °F 33.8 °F 76% 30.12 in 5.0 mi East 8.1 mph - N/A   Unknown
6:20 PM 39.2 °F 33.6 °F 33.8 °F 81% 30.12 in 5.6 mi East 8.1 mph - N/A   Unknown
6:50 PM 37.4 °F 31.4 °F 33.8 °F 87% 30.12 in 5.6 mi East 8.1 mph - N/A   Unknown
7:20 PM 39.2 °F 33.6 °F 33.8 °F 81% 30.12 in 5.6 mi East 8.1 mph - N/A   Unknown
7:50 PM 37.4 °F 30.8 °F 32.0 °F 81% 30.12 in 5.0 mi East 9.2 mph - N/A   Unknown
8:20 PM 35.6 °F 29.9 °F 32.0 °F 87% 30.15 in 5.0 mi East 6.9 mph - N/A   Unknown
8:50 PM 35.6 °F 31.7 °F 32.0 °F 87% 30.15 in 5.0 mi East 4.6 mph - N/A   Unknown
9:20 PM 35.6 °F 32.8 °F 32.0 °F 87% 30.15 in 4.3 mi Variable 3.5 mph - N/A   Unknown
9:50 PM 35.6 °F 32.8 °F 32.0 °F 87% 30.15 in 5.0 mi East 3.5 mph - N/A   Unknown
10:20 PM 35.6 °F 32.8 °F 32.0 °F 87% 30.15 in 4.3 mi ENE 3.5 mph - N/A   Unknown
10:50 PM 35.6 °F 31.7 °F 32.0 °F 87% 30.15 in 4.3 mi East 4.6 mph - N/A   Unknown
11:20 PM 33.8 °F 30.8 °F 30.2 °F 87% 30.15 in 4.3 mi East 3.5 mph - N/A   Unknown
11:50 PM 35 °F - 32 °F 86% 30.15 in 4 mi East 4.6 mph - -   Light Haze
11:50 PM 33.8 °F 29.6 °F 32.0 °F 93% 30.15 in 4.3 mi East 4.6 mph - N/A   Unknown